Regional Weather Roundup
Issued by NWS

Home | Current Version | Previous Version | Text Only | Print | Product List | Glossary Off
Versions: 1 2 3 4 5 6 7 8 9 10 11 12 13 14 15 16 17 18 19 20 21 22 23 24 25 26 27

000
ASUS42 KTBW 240610
RWRFL
FLORIDA REGIONAL WEATHER ROUNDUP
NATIONAL WEATHER SERVICE TAMPA BAY RUSKIN FL
200 AM EDT FRI OCT 24 2014

NOTE: "FAIR" INDICATES FEW OR NO CLOUDS BELOW 12,000 FEET WITH NO
SIGNIFICANT WEATHER AND/OR OBSTRUCTIONS TO VISIBILITY.


FLZ001>010-012>015-112-114-115-240700-
PANHANDLE FLORIDA

CITY           SKY/WX    TMP DP  RH WIND       PRES   REMARKS
PENSACOLA      CLOUDY    61  46  57 N6        30.04F
PENSACOLA NAS  CLOUDY    58  49  72 N5        30.04F
MILTON NAS     CLOUDY    57  47  69 N5        30.05F
CRESTVIEW      CLOUDY    52  49  89 N3        30.06S
DUKE FIELD     MOCLDY    52  48  85 NW2       30.04S
VALPARAISO     MOCLDY    57  46  68 N6        30.04S
MARY ESTHER    CLOUDY    56  47  73 N6        30.03S
PANAMA CITY    FAIR      53  48  83 CALM      30.02F
TYNDALL AFB    MOCLDY    55  51  86 E2        30.03F
APALACHICOLA   CLEAR     55  48  77 NE5       30.02F

STATION/POSITION SKY/WX   TEMP    WIND        PRES    WAVE   SWELL
                          AIR SEA DIR/SP/G            HT/PER HT/PER
                          (F)     (DEG/KT/KT) (MB)    (FT/S) (FT/S)
30.1N   87.6W              70 78   20/ 16/ 17 1016.8F   2/ 6   2/ 6
29.2N   88.2W              72 78   30/ 10/ 12 1017.6    3/ 6   3/ 6
28.8N   86.0W              73 80   50/ 10/ 14 1016.2F   3/ 6   3/ 6
PANAMA CITY BEAC           59 76   30/  3/  4 1016.8R
CAPE SAN BLAS    NOT AVBL
TOWER C                    70      50/ 13/ 14 1016.3F
28.5N   84.5W              74 81   70/ 14/ 17 1015.0F   2/ 4

$$
FLZ011-016>038-118-127-128-134-139-239-240700-
NORTH FLORIDA

CITY           SKY/WX    TMP DP  RH WIND       PRES   REMARKS
MARIANNA       MOCLDY    53  52  96 CALM      30.04R
TALLAHASSEE    PTCLDY    49  44  83 CALM      30.03S
PERRY          CLEAR     48  45  87 CALM      30.03S
CROSS CITY       N/A     49  46  90 CALM      30.02S
LAKE CITY      FAIR      46  46 100 CALM      30.02F
GAINESVILLE    CLEAR     49  48  97 CALM      30.02F
MAYPORT NAS    CLEAR     60  53  77 W3        30.02S
JACKSONVILLE   CLEAR     49  48  97 CALM      30.02S
JAX NAS        CLEAR     60  53  77 W5        30.03S
JAX CRAIG      CLEAR     53  49  86 CALM      30.03S
JAX CECIL      CLEAR     46  45  93 CALM      30.02F
FERNANDINA BEA FAIR      59  55  88 CALM      30.01S
ST AUGUSTINE   CLEAR     55  51  86 CALM      30.03S

STATION/POSITION SKY/WX   TEMP    WIND        PRES    WAVE   SWELL
                          AIR SEA DIR/SP/G            HT/PER HT/PER
                          (F)     (DEG/KT/KT) (MB)    (FT/S) (FT/S)
SHELL POINT                60      10/  5/  8   N/A
KEATON BEACH               56      70/  6/  7 1016.6F
CEDAR KEY                  63      70/ 13/ 14 1016.4F
FERNANDINA                 62 74   CALM  /  1 1016.1F
30.7N   81.3W                 76                N/A     2/10
MAYPORT                    62 75  300/  5/  6   N/A
31.4N   80.9W              68 75   20/  8/ 12 1016.5F   2/ 9   2/ 9
ST AUGUSTINE               69      50/  7/  9 1017.1F

$$
FLZ040-043>046-052-053-057-058-063-144-240700-
INTERIOR CENTRAL FLORIDA

CITY           SKY/WX    TMP DP  RH WIND       PRES   REMARKS
OCALA          CLEAR     55  52  88 NE3       30.02S
THE VILLAGES     N/A     59  55  88 N5        29.91F
LEESBURG       CLEAR     60  54  80 NE6       30.01F
SANFORD        CLEAR     64  56  75 N7        29.99F
ORLANDO EXEC   CLEAR     65  56  72 N7        29.99F
ORLANDO INTL   PTCLDY    63  57  81 N8        29.99F
WINTER HAVEN   CLEAR     63  56  78 N7        29.99F
LAKELAND       CLEAR     61  55  82 NE6       29.98F
BARTOW         FAIR      64  55  72 NE7       29.98F
OKEECHOBEE       N/A    N/A N/A N/A MISG        N/A

$$
FLZ041-047-054-059-064-141-147-240700-
EAST CENTRAL FLORIDA

CITY           SKY/WX    TMP DP  RH WIND       PRES   REMARKS
DAYTONA BEACH  PTCLDY    60  55  83 NW5       30.00F
DELAND         CLEAR     57  54  88 N6        30.01F
JFK SPACE CTR  PTCLDY    63  56  77 NE1       29.97F
CAPE CANAVERAL MOCLDY    68  56  65 NE5       29.96F
PATRICK AFB    CLEAR     73  57  56 NE8       29.96F
MELBOURNE      PTCLDY    73  58  59 E10       29.96F
VERO BEACH     PTCLDY    71  58  63 NE9       29.95F
FT PIERCE      MOCLDY    73  58  59 NE7       29.94F
STUART         CLOUDY    73  61  64 NE12      29.94F

STATION/POSITION SKY/WX   TEMP    WIND        PRES    WAVE   SWELL
                          AIR SEA DIR/SP/G            HT/PER HT/PER
                          (F)     (DEG/KT/KT) (MB)    (FT/S) (FT/S)
28.5N   80.2W              75 81   30/  8/ 12 1015.4F
28.9N   78.5W              74 81   30/  6/  8 1015.5F   3/ 9   3/ 9
TRIDENT PIER               67 80   10/  4/  5 1014.4F
28.4N   80.5W                 79                N/A     2/10
27.6N   80.2W                 80                N/A     3/ 5

$$
FLZ050-056-061-142-242-148-248-149-249-151-251-155-255-
160-260-240700-
WEST CENTRAL FLORIDA

CITY           SKY/WX    TMP DP  RH WIND       PRES   REMARKS
CRYSTAL RIVER  FAIR      57  52  82 E5        30.00F
INVERNESS      FAIR      59  54  82 CALM      30.01F
BROOKSVILLE    CLEAR     61  56  83 NE8       30.00F
ZEPHYRHILLS    FAIR      55  54  94 CALM      30.00S
CLEARWATER     CLEAR     68  59  73 NE9       29.98F
TAMPA INTL     CLEAR     65  56  72 NE3       29.98F
TAMPA EXEC     CLEAR     59  55  88 CALM      29.99S
PLANT CITY     CLEAR     63  59  88 NE5       30.00F
MACDILL AFB    CLEAR     64  60  89 E12       29.97F
ST PETERSBURG  CLEAR     71  61  70 E16       29.96F
SARASOTA       CLEAR     64  58  80 NE8       29.95F
VENICE           N/A     64  57  77 MISG      29.95F

STATION/POSITION SKY/WX   TEMP    WIND        PRES    WAVE   SWELL
                          AIR SEA DIR/SP/G            HT/PER HT/PER
                          (F)     (DEG/KT/KT) (MB)    (FT/S) (FT/S)
CEDAR KEY                  63      70/ 13/ 14 1016.4F
28.5N   84.5W              74 81   70/ 14/ 17 1015.0F   2/ 4
27.3N   84.3W                 81                N/A     3/ 5
CLEARWATER BEACH NOT AVBL
MIDDLE TAMPA BAY           69      90/ 16/ 19 1015.0F
VENICE                     67 79   50/  7/  9 1013.7F

$$
FLZ066-069-070-075>078-162-262-165-265-240700-
SOUTHWEST FLORIDA AND KEYS

CITY           SKY/WX    TMP DP  RH WIND       PRES   REMARKS
PUNTA GORDA    PTCLDY    65  56  72 NE9       29.96F
FT MYERS       PTCLDY    65  59  81 NE8       29.92F
SOUTHWEST INTL MOCLDY    68  58  70 NE12      29.93F
NAPLES         MOCLDY    71  63  75 NE10      29.89F
MARATHON       LGT RAIN  75  75 100 NE12      29.83F
KEY WEST NAS   CLOUDY    76  73  91 NE14G23   29.83F
KEY WEST INTL  CLOUDY    77  75  93 NE10G22   29.84F

STATION/POSITION SKY/WX   TEMP    WIND        PRES    WAVE   SWELL
                          AIR SEA DIR/SP/G            HT/PER HT/PER
                          (F)     (DEG/KT/KT) (MB)    (FT/S) (FT/S)
VENICE                     67 79   50/  7/  9 1013.7F
NAPLES                     72 82   30/  7/  9 1013.0F
26.0N   85.6W              77 82   30/ 14/ 16 1013.7F   5/ 7   5/ 7
DRY TORTUGAS               79      70/ 24/ 26 1011.0F
NW FL BAY                  78      60/ 13/ 15 1011.6F
SAND KEY                   77      50/ 21/ 24 1010.1F
SOMBRERO KEY               76      60/ 11/ 13 1010.5F
LONG KEY                   75 78   60/ 14/ 16 1011.1F
MOLASSES REEF              76 83  110/ 20/ 21 1010.3F

$$
FLZ067-068-071>074-168-172>174-240700-
SOUTHEAST FLORIDA

CITY           SKY/WX    TMP DP  RH WIND       PRES   REMARKS
W PALM BEACH   CLOUDY    77  64  64 NE13      29.91S
FT LAUDER-EXEC MOCLDY    78  66  66 NE9       29.88F
FT LAUDERDALE  MOCLDY    78  69  73 NE13G18   29.87F
POMPANO BEACH  MOCLDY    79  67  66 NE17      29.89F
PEMBROKE PINES MOCLDY    78  68  71 NE13      29.89F
OPA LOCKA      CLOUDY    78  69  73 NE13      29.88F
MIAMI          CLOUDY    78  69  73 NE9       29.87F
WEST KENDALL   CLOUDY    77  71  82 NE9       29.87F
HOMESTEAD      LGT RAIN  75  73  94 NE14      29.85F

STATION/POSITION SKY/WX   TEMP    WIND        PRES    WAVE   SWELL
                          AIR SEA DIR/SP/G            HT/PER HT/PER
                          (F)     (DEG/KT/KT) (MB)    (FT/S) (FT/S)
PORT EVERGLADES            79      50/ 16/ 20 1011.6
VIRGINIA KEY               78 81   50/ 10/ 20 1011.6F
LAKE WORTH                 78 80   40/ 18/ 21 1012.5F
FOWEY ROCKS                78 80   60/ 18/ 22 1011.0F
SETTLEMENT POINT           78      50/ 16/ 18 1013.2F

$$




USA.gov is the U.S. government's official web portal to all federal, state and local government web resources and services.